Powrót do katalogu

SL-12 R/B

AUX MOTOR

AktywnyHEO
NORAD 14607·ROCKET BODY·🇷🇺 Russia

Wystrzelony Dec 29, 1983 z Baikonur Cosmodrome

Loading…

Następne Przeloty (najbliższe 24 godziny)

TLE

ŚwieżeSource: Space-Track

Epoka: Sep 13, 2026, 13:18 UTC

1 14607U 83127G   26256.55419505  .00000226  00000-0  37833-3 0  9991
2 14607  52.0780  22.6691 5521557  93.9767 327.5504  4.62504982695320

Śledź SL-12 R/B w czasie rzeczywistym z AllMySat

Download on the App Store